Miscellaneous Local Product
Issued by NWS North Platte, NE

Home | Current Version | Previous Version | Graphics & Text | Print | Product List | Glossary On
Versions: 1 2 3 4 5 6 7 8 9 10 11 12 13 14 15 16 17 18 19 20 21 22 23 24 25 26 27 28 29 30 31 32 33 34 35 36 37 38 39 40 41 42 43 44 45 46 47 48 49 50
000
AXUS43 KLBF 060910
MISLBF


WESTERN AND NORTH CENTRAL NEBRASKA HOURLY WEATHER ROUNDUP
NATIONAL WEATHER SERVICE NORTH PLATTE NE
400 AM CDT WED MAY 06 2015

***STATIONS NOT REPORTING VARIABLES SUCH AS SKY/WEATHER OR
PRESSURE ARE PROVIDED BY THE NEBRASKA DEPARTMENT OF
ROADS...RAWS...AND APRS NETWORKS...AND ARE NOT UNDER
NATIONAL WEATHER SERVICE QUALITY CONTROL***

...OBSERVATIONS IN AND NEAR THE EASTERN PANHANDLE OF NEBRASKA...

CITY           SKY/WX    TMP DP  RH WIND       PRES   REMARKS
PINE RIDGE     LGT RAIN  54  51  90 E7        29.74F
CHADRON        LGT RAIN  53  51  93 E3        29.73F FOG
ALLIANCE       CLOUDY    53  52  96 SE12      29.71F
SIDNEY         CLOUDY    53  51  93 SE13G22   29.69F
WHITECLAY        N/A     52  50  92 SE9         N/A
CRESCENT LAKE    N/A     53  53 100 SE7         N/A
BIG SPRINGS      N/A     54  52  94 SE15        N/A
$$

...OBSERVATIONS IN NORTH CENTRAL NEBRASKA...

CITY           SKY/WX    TMP DP  RH WIND       PRES   REMARKS
VALENTINE      LGT RAIN  57  55  93 SE16      29.77F
THEDFORD       CLOUDY    58  57  96 SE10G17   29.77F
AINSWORTH      CLOUDY    58  57  98 SE16      29.79F
O`NEILL        DRIZZLE   60  59  95 SE9G16    29.83F
ORD            LGT RAIN  60  57  89 SE14      29.80F
BROKEN BOW     CLOUDY    60  58  92 S16G25    29.78F
VALENTINE NWR    N/A     55  55  99 SE15        N/A
SPRINGVIEW       N/A     58  55  91 E6G14       N/A
HALSEY           N/A     57  57 100 SE8G17      N/A
ROSE             N/A     58  58  99 E17         N/A
NEWPORT          N/A     60  58  94 SE15        N/A
COMSTOCK         N/A     64  64  99 S16         N/A
EWING            N/A     60  58  95 SE3         N/A
$$

...OBSERVATIONS IN SOUTHWEST NEBRASKA AND FAR NORTHEAST COLORADO...

CITY           SKY/WX    TMP DP  RH WIND       PRES   REMARKS
WRAY           FAIR     N/A N/A N/A SE6       29.69F
IMPERIAL       CLOUDY    54  51  90 S16G25    29.71F
OGALLALA       CLOUDY    55  53  94 SE10G18   29.72F
NORTH PLATTE   CLOUDY    59  56  89 SE12G21   29.75F
MCCOOK         CLOUDY    60  57  89 S13G20    29.74R
LEXINGTON      CLOUDY    60  58  94 SE14      29.77F
PAXTON           N/A     56  54  94 SE10        N/A
SUTHERLAND       N/A     54  52  94 S6          N/A
GOTHENBURG       N/A     60  56  87 SE8         N/A
CALLAWAY         N/A     59  58  97 SE16        N/A
$$

...NORTH PLATTE AREA...

CITY           SKY/WX    TMP DP  RH WIND       PRES   REMARKS
AIRPORT        CLOUDY    59  56  89 SE12G21   29.75F
$$

...SOME WEATHER OBSERVATIONS FROM AROUND THE REGION...

CITY           SKY/WX    TMP DP  RH WIND       PRES   REMARKS
DENVER         LGT RAIN  49  47  93 W13       29.71F FOG
LARAMIE        CLOUDY    41  39  93 SW3       29.76F
CHEYENNE       LGT RAIN  47  45  93 N9        29.73F FOG
SCOTTSBLUFF    LGT RAIN  53  53 100 E7        29.71F FOG
RAPID CITY     LGT RAIN  53  52  96 SE5       29.75F FOG
PIERRE         CLOUDY    58  55  90 SE9       29.79F
WINNER         CLOUDY    60  55  83 SE12      29.79F
SIOUX FALLS    CLOUDY    63  59  87 SE15      29.92F
OMAHA          CLOUDY    64  61  90 SE12      29.91F
GRAND ISLAND   CLOUDY    61  58  90 SE16G24   29.84F
KANSAS CITY    CLOUDY    67  56  67 SE15      29.94F
WICHITA        LGT RAIN  61  59  93 SE20      29.81F
HAYS           CLOUDY    61  54  77 SE14      29.76F
LIBERAL        CLEAR     52  48  87 SE7       29.76F
GOODLAND       CLOUDY    52  51  97 S18       29.73F
$$



USA.gov is the U.S. government's official web portal to all federal, state and local government web resources and services.